Location: Rounton
(54.4000°N, 1.3500°W)
Time: 18:39:56
(UTC+01:00)

S-56A Canister/Altair - Pass Details

Date: 15 September 2024
Orbit: 636 x 2487 km, 38.9° (Epoch: 06 October)

Event Time Altitude Azimuth Distance (km) Brightness Sun altitude
Rises 01:06:15 0° 263° (W) 4,369 11.3 -32.7°
Enters shadow 01:07:37 - 257° (WSW) 4,092 11.1 -32.7°
Reaches altitude 10° 01:09:59 10° 246° (WSW) 3,706 - -32.7°
Maximum altitude 01:16:16 19° 206° (SSW) 3,494 - -32.6°
Drops below altitude 10° 01:23:58 10° 168° (SSE) 4,658 - -32.5°
Sets 01:29:35 0° 154° (SSE) 5,916 - -32.4°
